Location: Ahausen
(50.4985°N, 8.2722°E)
Time: 11:04:11
(UTC+00:00)

Cosmos 1833 Rocket - Pass Details

Date: 18 September 2020
Orbit: 831 x 841 km, 71.0° (Epoch: 25 October)

Event Time Altitude Azimuth Distance (km) Brightness Sun altitude
Rises 19:58:43 0° 332° (NNW) 3,408 6.9 -22.6°
Reaches altitude 10° 20:01:17 10° 338° (NNW) 2,470 5.9 -23.0°
Maximum altitude 20:06:43 46° 52° (NE) 1,126 3.2 -23.7°
Enters shadow 20:07:25 44° 73° (ENE) 1,160 3.1 -23.8°
